Regional Weather Roundup
Issued by NWS Portland, ME

Current Version | Previous Version | Text Only | Print | Product List | Glossary Off
Versions: 1 2 3 4 5 6 7 8 9 10 11 12 13 14 15 16 17 18 19 20 21 22 23 24 25 26 27 28 29 30 31 32 33 34 35 36 37 38 39 40 41 42 43 44 45 46 47 48 49 50
000 ASUS41 KGYX 270710 RWRGYX WEATHER ROUNDUP FOR MAINE AND NEW HAMPSHIRE NATIONAL WEATHER SERVICE GRAY ME 300 AM EDT THU APR 27 2017 MEZ002-005-006-010-012-015-018-020-021-024-026-027-029-270800- MAINE CITY SKY/WX TMP DP RH WIND PRES REMARKS PORTLAND CLOUDY 49 48 97 VRB7 29.88F SANFORD CLOUDY 52 51 97 N7 29.87S BAR HARBOR FOG 53 52 96 S6 29.95R VSB 1 WISCASSET CLOUDY 51 51 100 E5 29.91S FOG ROCKLAND LGT RAIN 49 49 100 CALM 29.92S FOG FRYEBURG CLOUDY 53 53 100 N3 29.89S FOG LEWISTONAUBURN CLOUDY 52 52 100 N6 29.89S AUGUSTA CLOUDY 52 51 97 CALM 29.90S WATERVILLE CLOUDY 54 53 97 CALM 29.88S BANGOR CLOUDY 54 54 100 SE6 29.93F FOG GREENVILLE N/A 51 51 100 E5 29.90F MILLINOCKET CLOUDY 54 54 100 E3 29.95F FOG HOULTON CLOUDY 56 56 100 VRB3 29.96S FOG PRESQUE ISLE CLOUDY 54 54 100 CALM 29.97F FOG FRENCHVILLE FOG 52 50 93 SE8 29.95F VSB 1/4 CARIBOU CLOUDY 55 53 93 CALM 29.95F $$ NHZ002-005-008-009-011-012-014-270800- NEW HAMPSHIRE CITY SKY/WX TMP DP RH WIND PRES REMARKS PORTSMOUTH DRIZZLE 51 50 99 CALM 29.86R FOG ROCHESTER CLOUDY 53 51 93 N5 29.85R FOG NASHUA CLOUDY 54 54 100 E3 29.87R FOG MANCHESTER DRIZZLE 54 52 93 E3 29.86R FOG CONCORD CLOUDY 54 52 93 CALM 29.86S FOG LACONIA CLOUDY 53 52 96 CALM 29.87F PLYMOUTH CLOUDY 53 52 97 CALM 29.86F FOG BERLIN CLOUDY 51 48 89 CALM 29.88S FOG WHITEFIELD CLEAR 52 48 86 CALM 29.85F JAFFREY CLOUDY 53 53 100 CALM 29.86S FOG KEENE CLOUDY 54 53 97 CALM 29.86S LEBANON CLOUDY 54 54 100 E3 29.85S MT WASHINGTON FOG 45 45 100 S24 N/A VSB 1/16 $$ VTZ005-007-008-270800- VERMONT CITY SKY/WX TMP DP RH WIND PRES REMARKS ST JOHNSBURY N/A 55 52 89 MISG 29.84F BURLINGTON CLEAR 55 52 89 SE8 29.81F $$ MAZ007-012-024-CTZ003-RIZ002-NYZ038-NYZ072-270800- SOUTHERN NEW ENGLAND AND NY CITY SKY/WX TMP DP RH WIND PRES REMARKS BOSTON FOG 51 51 100 N3 29.86F VSB 1/4 WORCESTER FOG 52 50 93 N9 29.85S VSB 1/4 NANTUCKET FOG 52 51 97 E3 29.85R VSB 3/4 PROVIDENCE CLOUDY 56 56 100 NE7 29.85R HARTFORD DRIZZLE 57 56 96 NW5 29.85S ALBANY MOCLDY 59 54 83 SE3 29.83S NEW YORK CITY DRZL/FOG 58 56 93 CALM 29.84S VSB 1/2 $$ ANZ081-ANZ082-ANZ150-NHZ014-MEZ023>029-270800- COASTAL MARINE OBSERVATIONS STATION/POSITION TIME TEMP WIND PRES WAVE AIR SEA DIR/SP/G HT/PER (UTC) (F) (DEG/KT/KT) (MB) (FT/S) MOUNT DESERT ROC 0700 46 1012.9F MATINICUS ROCK 0600 45 140/ 20/ 20 1011.7R ISLE OF SHOALS 0600 47 60/ 12/ 12 1010.8R JEFFREYS LEDGE 0606 44 N/A 7/10 CASHES LEDGE BUO 0650 45 43 1011.9S 10/11 GEORGES BANK BUO 0550 53 42 1013.8 13/11 $$ .............KEY.............. WCI - WIND CHILL TC - TEMPERATURE IN CELSIUS VSB - VISIBILITY IN MILES HX - HEAT INDEX FAIR- INDICATES FEW OR NO CLOUDS BELOW 12,000 FT, WITH NO SIGNIFICANT WEATHER AND/OR OBSTRUCTIONS TO VISIBILITY.

USA.gov is the U.S. government's official web portal to all federal, state and local government web resources and services.